Flag for Germany Weather past 2 weeks in Suhl, Thuringia, Germany

Now
60 °F

Partly sunny.


Feels Like: 59 °F
Forecast: 44 / 56 °F
Wind: 8 mph from West

Location: Meiningen

Current Time: Oct 20, 2014 at 2:22:49 PM

Latest Report: Oct 20, 2014 at 2:00 PM


Visibility: 38 mi

Pressure: 30.02 "Hg

Humidity: 60%

Dew point: 46 °F

Location of SuhlLocation

Historic Weather in Suhl — Graph

°F

Suhl temperature yesterday

Maximum temperature yesterday: 62 °F (at 6:00 PM)
Minimum temperature yesterday: 49 °F (at 3:00 AM)
Average temperature yesterday: 54 °F

Past Weeks' High & Low Weather Summary

 TemperatureHumidityPressure
High66 °F (Oct 9, 3:00 PM)100% (Oct 12, 6:00 AM)30.25 "Hg (Oct 12, 6:00 AM)
Low41 °F (Oct 6, 6:00 AM)52% (Oct 15, 3:00 PM)29.72 "Hg (Oct 16, 3:00 PM)
Average55 °F89%29.92 "Hg
* Reported Oct 5 1:00 PM — Oct 20 1:00 PM, Suhl, Weather by CustomWeather, © 2014

Note: Actual official high and low records may vary slightly from our data, if they occured in-between our weather recording intervals... More about our weather records

Advertising

Suhl weather history for previous 24 hours

 ConditionsComfort  
Time TempWeatherWind HumidityBarometerVisibility
1:00 PM
Oct 20
59 °FOvercast.6 mph67%30.04 "Hg31 mi
12:00 PM59 °FOvercast.7 mph66%30.05 "Hg37 mi
10:00 AM57 °FPartly sunny.5 mph69%30.05 "Hg37 mi
9:00 AM56 °FPartly sunny.6 mph68%30.04 "Hg37 mi
8:00 AM56 °FPartly sunny.7 mph69%30.03 "Hg43 mi
7:00 AM57 °FPassing clouds.8 mph70%30.03 "Hg37 mi
5:00 AM58 °FOvercast.7 mph67%30.04 "Hg43 mi
4:00 AM58 °FOvercast.8 mph68%30.05 "Hg37 mi
3:00 AM58 °FOvercast.7 mph72%30.04 "Hg43 mi
2:00 AM62 °FPassing clouds.6 mph79%30.02 "Hg15 mi
1:00 AM62 °FPassing clouds.8 mph77%30.02 "Hg25 mi
12:00 AM62 °FPassing clouds.5 mph81%30.03 "Hg22 mi
11:00 PM
Oct 19
59 °FClear.5 mph92%30.04 "Hg14 mi
10:00 PM60 °FPassing clouds.5 mph90%30.03 "Hg16 mi
9:00 PM60 °FClear.5 mph89%30.03 "Hg14 mi
8:00 PM61 °FPassing clouds.3 mph87%30.04 "Hg16 mi
7:00 PM61 °FClear.3 mph88%30.04 "Hg19 mi
6:00 PM62 °FSunny.5 mph83%30.04 "Hg16 mi
4:00 PM57 °FPassing clouds.5 mph94%30.08 "Hg6 mi
3:00 PM55 °FFog.3 mph98%30.11 "Hg2 mi
2:00 PM54 °FFog.3 mph100%30.13 "Hg0 mi
Weather by CustomWeather, © 2014

See weather overviewHow to use our weather pages